Date,TemperatureHighF,TemperatureAvgF,TemperatureLowF,DewpointHighF,DewpointAvgF,DewpointLowF,HumidityHigh,HumidityAvg,HumidityLow,PressureMaxIn,PressureMinIn,WindSpeedMaxMPH,WindSpeedAvgMPH,GustSpeedMaxMPH,PrecipitationSumIn
2013-1-1,34,21,8,14,2,-12,69,46,31,29.27,29.15,0,0,0,0.00
2013-1-2,49,25,7,21,5,-13,73,43,27,29.21,29.09,5,0,5,0.04
2013-1-3,53,29,18,25,14,7,76,55,28,29.39,29.21,5,0,5,0.04
2013-1-4,55,32,15,23,15,5,76,51,27,29.36,29.18,6,1,8,0.00
2013-1-5,53,38,28,26,20,13,65,49,31,29.18,29.00,9,2,12,0.00
2013-1-6,60,35,18,23,13,3,65,42,18,29.36,29.18,6,1,6,0.00
2013-1-7,57,41,29,22,15,11,47,36,25,29.21,28.97,11,2,11,0.00
2013-1-8,65,45,32,28,21,16,57,40,23,29.15,28.88,10,2,10,0.00
2013-1-9,66,43,24,33,21,14,74,44,24,29.39,29.15,6,0,7,0.00
2013-1-10,47,43,33,43,35,18,89,76,40,29.27,28.71,9,1,11,0.28
2013-1-11,59,52,46,47,39,14,95,64,23,28.74,28.50,15,3,15,0.04
2013-1-12,47,28,19,24,7,0,52,40,31,29.09,28.74,11,3,11,0.00
2013-1-13,40,22,12,9,-2,-10,51,37,21,29.33,29.06,9,2,9,0.00
2013-1-14,50,23,7,16,-2,-11,62,36,17,29.44,29.33,6,0,6,0.00
2013-1-15,54,27,12,17,2,-8,60,37,15,29.36,29.12,4,0,4,0.00
2013-1-16,64,36,21,25,12,2,61,38,21,29.18,28.97,7,0,7,0.00
2013-1-17,67,40,22,32,19,11,77,47,23,29.44,29.18,4,0,4,0.00
2013-1-18,66,47,34,25,21,18,56,37,17,29.33,28.97,13,3,14,0.00
2013-1-19,67,48,37,24,19,12,53,33,15,29.21,28.91,7,2,7,0.00
2013-1-20,45,29,18,18,4,-5,49,34,20,29.39,29.21,7,2,7,0.00
2013-1-21,31,19,12,5,-1,-5,54,41,31,29.41,29.33,8,1,8,0.00
2013-1-22,37,23,13,7,0,-5,49,37,27,29.33,29.18,10,2,10,0.00
2013-1-23,55,30,12,20,8,-1,62,41,23,29.39,29.12,8,2,10,0.00
2013-1-24,32,23,11,4,-2,-8,46,34,23,29.44,29.12,10,3,10,0.00
2013-1-25,56,34,16,19,7,-3,53,34,18,29.21,29.09,6,0,6,0.00
2013-1-26,61,43,26,22,15,9,61,35,16,29.21,29.00,9,1,12,0.00
2013-1-27,61,50,40,50,40,21,85,68,38,29.00,28.68,14,3,17,0.04
2013-1-28,77,62,48,55,42,36,70,52,24,28.79,28.59,15,2,15,0.00
2013-1-29,68,45,34,55,37,28,89,74,46,28.68,28.50,11,2,11,0.04
2013-1-30,34,27,16,32,15,4,96,62,41,28.94,28.53,6,0,6,0.04
2013-1-31,26,17,6,13,0,-14,72,48,34,29.41,28.91,14,1,14,0.00
2013-2-1,33,19,4,6,-2,-16,62,38,32,29.41,29.09,7,1,7,0.00
2013-2-2,56,39,24,28,18,6,64,43,30,29.18,29.06,6,0,6,0.00
2013-2-3,55,42,27,24,16,11,69,37,18,29.24,28.79,10,1,10,0.00
2013-2-4,50,38,24,24,17,13,69,44,29,28.97,28.74,10,2,10,0.00
2013-2-5,64,40,23,30,19,12,81,49,21,29.06,28.85,9,1,9,0.00
2013-2-6,66,48,26,38,27,15,73,46,24,29.06,28.79,10,2,11,0.00
2013-2-7,55,46,33,45,32,20,93,61,37,29.18,28.82,10,2,10,0.43
2013-2-8,50,36,30,25,20,18,79,54,30,29.30,29.15,7,1,7,0.00
2013-2-9,56,41,29,36,27,22,85,61,34,29.15,28.68,12,3,13,0.00
2013-2-10,54,44,36,46,27,14,97,55,29,28.91,28.44,15,4,15,0.12
2013-2-11,51,37,24,18,14,6,58,41,24,29.15,28.91,9,0,231,0.00
2013-2-12,50,33,20,21,14,10,73,49,27,29.15,28.91,0,0,3,0.00
2013-2-13,60,39,22,25,15,8,76,42,17,28.94,28.77,8,1,10,0.00
2013-2-14,55,42,30,27,18,10,60,39,26,29.18,28.79,9,1,14,0.00
2013-2-15,47,32,16,21,11,3,68,43,22,29.36,29.18,13,1,13,0.00
2013-2-16,41,32,19,19,12,6,70,46,29,29.30,29.00,10,1,10,0.00
2013-2-17,64,45,24,25,16,5,51,33,21,29.00,28.59,11,2,11,0.00
2013-2-18,60,44,23,34,20,6,48,38,29,29.06,28.44,15,4,15,0.00
2013-2-19,40,28,20,10,2,-10,58,35,18,29.30,29.06,10,2,10,0.00
2013-2-20,31,23,16,3,-2,-10,36,32,27,29.33,29.09,11,2,11,0.00
2013-2-21,29,25,21,23,15,2,85,67,36,29.12,28.71,10,3,10,0.00
2013-2-22,34,23,13,19,11,5,81,61,41,29.03,28.77,6,1,6,0.12
2013-2-23,40,23,5,17,10,-4,74,58,38,29.03,28.88,6,1,6,0.04
2013-2-24,49,33,14,26,16,9,81,54,30,28.97,28.82,9,1,9,0.00
2013-2-25,39,35,31,31,21,17,90,58,45,28.91,28.71,11,3,11,0.04
2013-2-26,37,34,32,32,28,25,93,78,64,28.85,28.65,12,1,12,0.00
2013-2-27,44,34,29,27,22,16,87,61,38,29.06,28.82,10,1,10,0.28
2013-2-28,37,33,30,22,18,16,68,54,43,29.18,29.03,13,1,13,0.00
2013-3-1,37,30,27,16,12,8,56,47,37,29.30,29.18,11,3,11,0.00
2013-3-2,46,32,23,15,11,7,52,41,28,29.33,29.12,7,1,8,0.00
2013-3-3,52,38,27,22,17,12,56,44,29,29.12,28.65,9,2,9,0.00
2013-3-4,61,44,34,29,24,21,64,46,27,28.97,28.62,10,2,10,0.00
2013-3-5,44,34,24,27,11,6,69,40,29,29.33,28.97,14,4,14,0.00
2013-3-6,50,32,17,20,12,6,75,46,27,29.39,29.21,8,1,8,0.00
2013-3-7,57,39,24,23,18,12,67,44,25,29.21,29.03,11,2,11,0.00
2013-3-8,65,51,35,38,28,19,54,43,27,29.12,28.88,11,3,11,0.00
2013-3-9,57,53,48,56,44,29,98,77,36,28.88,28.53,13,2,13,1.18
2013-3-10,53,36,26,52,33,15,98,87,63,28.91,28.53,15,2,15,0.08
2013-3-11,43,31,24,19,14,8,67,50,28,28.97,28.85,6,0,8,0.00
2013-3-12,54,38,29,26,15,8,70,41,20,29.33,28.97,13,1,13,0.00
2013-3-13,52,35,18,24,13,7,79,44,19,29.44,29.24,6,0,6,0.00
2013-3-14,35,35,34,16,15,14,47,45,42,29.24,29.18,3,0,3,0.00
2013-3-15,90,64,34,39,26,15,79,34,7,29.00,28.62,8,1,10,0.00
2013-3-16,58,44,35,34,26,18,71,49,33,29.03,28.68,13,4,15,0.00
2013-3-17,47,36,32,30,24,18,81,62,38,29.03,28.74,10,3,11,0.00
2013-3-18,60,44,33,34,21,4,87,47,17,29.03,28.71,9,2,9,0.00
2013-3-19,44,35,25,34,20,2,89,56,30,29.21,29.03,3,0,3,0.20
2013-3-20,48,34,23,34,10,-1,92,38,19,29.39,29.09,11,2,11,0.00
2013-3-21,39,31,27,25,11,2,83,45,31,29.09,28.85,10,2,10,0.00
2013-3-22,39,33,30,30,26,24,88,76,59,28.97,28.88,6,1,6,0.00
2013-3-23,39,34,30,31,25,18,93,71,43,29.00,28.85,8,1,8,0.00
2013-3-24,40,30,22,28,19,9,97,66,36,29.09,28.85,8,0,8,0.04
2013-3-25,42,30,21,21,15,8,69,53,38,29.33,29.06,10,2,10,0.00
2013-3-26,44,31,16,17,13,9,77,49,29,29.39,29.24,6,1,6,0.16
2013-3-27,56,40,25,23,18,13,60,43,26,29.24,29.12,11,2,11,0.00
2013-3-28,70,50,27,34,25,20,84,44,19,29.18,29.06,6,1,8,0.00
2013-3-29,75,58,42,40,33,26,73,43,18,29.15,29.03,9,2,9,0.00
2013-3-30,77,61,52,57,42,29,97,54,30,29.03,28.82,8,1,8,0.20
2013-3-31,71,57,45,43,29,11,77,38,14,28.97,28.91,13,2,13,0.00
2013-4-1,53,43,33,26,13,2,58,32,18,29.27,28.94,10,3,10,0.00
2013-4-2,60,42,27,16,10,4,47,28,14,29.30,29.18,8,1,8,0.00
2013-4-3,56,42,28,20,16,9,62,36,20,29.33,29.18,8,1,8,0.00
2013-4-4,70,49,29,28,22,15,70,39,14,29.21,29.03,9,1,9,0.00
2013-4-5,76,56,34,38,28,20,77,39,13,29.12,28.79,15,2,15,0.00
2013-4-6,81,66,53,38,32,24,43,30,14,28.79,28.65,12,3,13,0.00
2013-4-7,77,60,44,54,38,31,74,47,20,28.82,28.62,9,2,9,0.00
2013-4-8,82,66,53,55,49,44,84,57,30,28.68,28.62,9,2,9,0.00
2013-4-9,79,66,41,60,50,34,77,59,34,28.82,28.56,10,3,10,0.04
2013-4-10,43,38,34,42,37,0,98,94,77,28.94,28.68,10,1,10,0.83
2013-4-11,50,38,33,34,23,16,97,56,30,28.82,28.71,9,2,10,0.00
2013-4-12,60,43,30,24,21,18,71,45,25,29.00,28.77,9,2,11,0.00
2013-4-13,72,53,32,37,30,23,80,44,22,29.00,28.62,9,2,9,0.00
2013-4-14,74,62,53,40,34,20,46,35,24,28.71,28.44,17,4,17,0.00
2013-4-15,55,50,46,34,22,17,60,34,26,28.97,28.71,8,2,8,0.00
2013-4-16,51,46,40,27,22,18,49,39,30,29.12,28.97,10,4,10,0.00
2013-4-17,50,47,44,47,40,27,98,77,47,29.03,28.62,9,2,9,0.51
2013-4-18,44,39,35,43,31,18,98,75,47,28.94,28.62,11,3,11,0.24
2013-4-19,61,44,30,24,19,15,70,40,19,29.06,28.91,10,2,10,0.00
2013-4-20,65,47,28,30,23,17,78,42,20,29.18,29.06,11,2,11,0.00
2013-4-21,73,58,45,33,30,25,55,36,22,29.15,29.03,12,3,12,0.00
2013-4-22,66,54,39,49,36,31,88,53,29,29.06,28.88,8,1,10,0.12
2013-4-23,39,35,33,35,32,28,98,87,70,29.18,29.03,12,2,12,0.59
2013-4-24,64,45,24,30,22,15,84,46,18,29.24,29.12,8,1,10,0.00
2013-4-25,77,55,31,37,25,14,81,37,11,29.27,29.06,10,1,10,0.00
2013-4-26,60,53,50,48,42,26,86,67,36,29.15,29.09,13,1,14,0.24
2013-4-27,64,54,47,51,44,38,93,71,40,29.15,28.97,6,0,6,0.20
2013-4-28,83,62,42,53,44,38,97,58,22,28.97,28.74,10,2,10,0.00
2013-4-29,93,73,52,55,47,36,85,45,14,28.77,28.56,10,2,10,0.00
2013-4-30,91,76,66,46,42,39,46,31,19,28.77,28.59,14,4,14,0.00
2013-5-1,81,60,40,48,38,27,90,46,25,29.21,28.77,15,3,15,0.24
2013-5-2,41,38,34,38,32,20,98,82,44,29.41,29.21,17,3,17,1.18
2013-5-3,55,44,34,31,25,17,76,51,27,29.30,28.91,13,3,14,0.00
2013-5-4,50,43,37,42,37,30,94,79,57,29.03,28.85,11,3,11,0.16
2013-5-5,60,51,45,43,41,37,90,70,45,29.12,29.03,8,1,8,0.00
2013-5-6,78,60,51,46,43,38,83,57,24,29.09,29.00,8,1,8,0.00
2013-5-7,85,64,43,55,41,34,91,51,19,29.06,28.94,6,1,6,0.00
2013-5-8,84,67,58,60,50,42,86,59,28,28.97,28.82,10,1,11,0.51
2013-5-9,82,66,57,60,51,44,93,63,30,28.94,28.82,9,1,10,0.04
2013-5-10,75,61,50,53,43,33,86,55,24,29.03,28.91,10,2,10,0.00
2013-5-11,72,58,45,51,27,7,93,39,14,29.24,29.03,13,2,17,0.00
2013-5-12,78,56,34,35,24,16,76,35,13,29.27,29.09,9,0,9,0.00
2013-5-13,87,67,46,47,37,30,67,37,18,29.12,28.88,8,2,9,0.00
2013-5-14,100,80,62,46,35,23,47,24,8,28.88,28.77,15,3,15,0.00
2013-5-15,96,79,67,59,46,38,72,35,17,28.85,28.77,12,2,12,0.00
2013-5-16,89,74,62,61,52,41,86,51,21,28.85,28.77,8,0,8,0.00
2013-5-17,91,73,60,62,52,44,90,53,20,28.91,28.82,8,0,8,0.00
2013-5-18,90,76,60,66,58,45,81,56,33,28.88,28.68,17,2,17,0.00
2013-5-19,86,69,58,63,58,48,94,71,33,28.82,28.53,12,2,13,0.87
2013-5-20,90,71,56,62,48,34,96,52,15,28.71,28.59,9,1,10,0.00
2013-5-21,81,68,55,48,39,32,70,38,21,28.77,28.68,10,1,12,0.00
2013-5-22,78,64,52,44,40,36,69,43,24,28.94,28.74,8,1,8,0.00
2013-5-23,79,62,50,48,42,39,82,51,25,29.18,28.94,8,1,8,0.00
2013-5-24,83,65,50,52,42,36,87,50,20,29.24,29.06,9,2,10,0.00
2013-5-25,91,76,64,57,50,44,68,44,23,29.12,28.94,10,2,13,0.00
2013-5-26,88,78,68,62,57,52,79,52,31,29.00,28.82,10,2,12,0.00
2013-5-27,84,73,63,68,60,51,98,66,45,28.88,28.62,13,3,13,2.64
2013-5-28,89,79,71,64,60,57,72,54,36,28.77,28.62,11,2,11,0.00
2013-5-29,88,76,68,59,57,29,67,51,31,28.77,28.56,13,4,13,0.00
2013-5-30,82,68,62,64,58,51,93,74,35,28.71,28.56,8,1,8,0.71
2013-5-31,87,72,59,70,60,44,98,73,27,28.74,28.62,9,0,9,0.63
2013-6-1,70,64,57,63,46,38,80,52,33,28.79,28.71,5,0,5,0.00
2013-6-2,78,63,52,43,38,31,65,42,22,29.09,29.00,6,0,8,0.00
2013-6-3,84,65,48,50,42,37,83,49,21,29.03,28.82,6,0,8,0.00
2013-6-4,89,72,64,57,53,48,69,52,28,28.94,28.79,4,0,4,0.00
2013-6-5,76,67,61,64,56,48,85,69,40,28.97,28.91,8,0,8,0.12
2013-6-6,85,68,54,57,45,35,90,52,19,28.97,28.91,6,0,8,0.00
2013-6-7,87,68,51,56,42,28,90,47,13,29.00,28.88,3,0,5,0.00
2013-6-8,89,70,55,60,47,41,87,49,20,28.91,28.71,10,0,10,0.55
2013-6-9,86,72,60,64,49,34,97,54,16,28.85,28.77,4,0,4,0.08
2013-6-10,94,75,56,64,51,40,91,49,18,28.88,28.77,4,0,4,0.00
2013-6-11,100,83,71,65,53,33,74,42,10,28.85,28.74,10,0,10,0.00
2013-6-12,102,87,74,62,53,44,60,35,16,28.94,28.71,8,0,8,0.00
2013-6-13,74,68,64,45,43,40,49,40,34,29.00,28.94,5,0,5,0.00
2013-6-15,97,82,69,68,59,49,79,50,20,28.94,28.85,6,0,8,0.00
2013-6-16,95,79,68,69,61,54,86,59,27,28.94,28.88,4,0,5,0.00
2013-6-17,92,76,67,69,61,50,95,65,27,29.00,28.85,5,0,5,0.20
2013-6-18,94,74,63,66,58,48,93,62,21,29.00,28.94,6,0,6,0.04
2013-6-19,97,78,63,65,54,42,92,51,17,29.00,28.91,4,0,6,0.00
2013-6-20,98,82,69,67,58,53,71,47,23,28.97,28.82,9,0,9,0.00
2013-6-21,101,86,75,66,59,50,70,44,20,28.91,28.82,10,0,10,0.00
2013-6-22,89,78,74,61,58,53,64,50,30,28.91,28.88,4,0,5,0.00
2013-6-23,96,82,75,69,59,50,73,48,25,28.91,28.79,6,0,8,0.12
2013-6-24,98,84,75,63,55,48,63,40,21,28.91,28.77,6,0,6,0.00
2013-6-25,96,82,73,71,60,54,89,52,26,28.85,28.68,13,0,13,0.20
2013-6-26,107,88,72,70,53,26,81,40,6,28.88,28.71,8,0,8,0.00
2013-6-27,94,80,71,71,62,52,95,57,26,28.97,28.79,6,0,6,0.16
2013-6-28,94,79,66,72,54,36,98,53,14,28.97,28.88,5,0,7,0.00
2013-6-29,91,76,62,54,44,30,71,36,13,28.91,28.82,8,0,8,0.00
2013-6-30,88,73,59,54,44,36,74,40,18,29.03,28.91,8,0,8,0.00
2013-7-1,91,72,54,53,41,24,84,40,10,29.12,29.03,8,0,10,0.00
2013-7-2,94,74,55,57,41,24,87,40,9,29.12,29.03,5,0,8,0.00
2013-7-3,99,75,57,55,42,25,80,39,8,29.06,28.94,4,0,4,0.00
2013-7-4,100,78,59,51,40,26,66,32,8,29.00,28.91,4,0,4,0.00
2013-7-5,100,82,65,53,44,27,62,30,8,28.97,28.85,7,0,7,0.00
2013-7-6,93,78,69,61,52,45,66,42,20,28.91,28.85,4,0,4,0.04
2013-7-7,99,84,70,59,52,47,67,36,17,28.94,28.85,6,0,6,0.00
2013-7-8,107,88,74,63,52,40,68,33,11,29.00,28.91,5,0,5,0.00
2013-7-9,111,92,79,61,52,34,52,30,8,28.97,28.79,6,0,6,0.00
2013-7-10,102,86,73,59,48,34,51,29,10,29.03,28.85,10,0,10,0.00
2013-7-11,81,75,70,54,48,40,58,40,24,29.03,28.94,2,0,3,0.00
2013-7-12,102,84,69,55,49,42,54,32,16,29.00,28.91,8,0,8,0.00
2013-7-13,96,83,72,61,52,45,41,34,26,29.00,28.88,3,0,6,0.00
2013-7-14,96,81,68,66,48,31,84,38,11,29.09,28.94,9,0,9,0.12
2013-7-15,98,81,65,62,50,42,77,39,16,29.15,29.06,8,0,8,0.00
2013-7-16,104,85,70,64,51,39,75,36,12,29.24,29.15,3,0,3,0.00
2013-7-17,106,86,70,66,52,38,78,37,12,29.30,29.15,2,0,2,0.00
2013-7-18,104,87,70,64,50,33,70,32,9,29.18,28.97,4,0,4,0.00
2013-7-19,108,88,74,71,50,33,90,33,9,28.97,28.82,3,0,6,0.47
2013-7-20,98,77,71,76,67,48,96,75,20,28.91,28.82,6,0,6,0.08
2013-7-21,96,80,69,72,61,52,91,59,24,28.91,28.79,0,0,2,0.00
2013-7-22,102,84,71,73,59,45,89,49,16,28.82,28.77,4,0,4,0.00
2013-7-23,91,78,71,72,60,52,89,58,28,28.94,28.79,6,0,6,0.00
2013-7-24,96,79,64,55,46,31,69,35,14,29.03,28.91,4,0,4,0.00
2013-7-25,86,75,65,68,57,48,85,57,29,29.06,28.97,0,0,2,0.08
2013-7-26,94,78,67,70,53,33,90,52,17,29.06,28.97,8,0,8,0.08
2013-7-27,76,66,57,55,48,41,80,54,31,29.12,28.97,3,0,3,0.00
2013-7-28,82,68,60,61,50,37,89,58,22,29.03,29.00,2,0,3,0.04
2013-7-29,70,66,62,69,63,55,97,90,75,29.03,28.91,4,0,4,1.38
2013-7-30,81,74,69,73,68,62,98,86,59,29.06,28.94,4,0,4,0.00
2013-7-31,94,78,65,74,58,44,95,58,20,29.12,29.03,4,0,4,0.00
2013-8-1,98,80,65,71,56,43,93,52,17,29.09,28.91,4,0,4,0.00
2013-8-2,94,78,65,73,64,58,96,66,35,29.00,28.82,5,0,6,0.67
2013-8-3,88,79,72,68,62,56,87,60,35,29.09,28.88,4,0,4,0.00
2013-8-4,78,72,67,70,65,57,93,78,60,29.12,29.00,4,0,4,0.94
2013-8-5,91,78,69,72,65,58,93,67,34,29.00,28.82,4,0,4,0.00
2013-8-6,96,82,71,77,66,54,95,64,24,28.85,28.77,6,0,6,0.87
2013-8-7,93,79,69,78,65,51,95,65,31,28.94,28.77,4,0,4,1.34
2013-8-8,76,71,68,63,60,57,78,67,56,29.00,28.88,5,0,5,0.04
2013-8-9,82,73,64,63,57,46,81,60,31,29.12,28.97,2,0,2,0.00
2013-8-10,94,75,60,70,53,41,95,54,17,29.18,29.06,5,0,6,0.00
2013-8-11,98,78,62,63,53,43,84,47,18,29.12,28.97,3,0,3,0.00
2013-8-12,92,77,66,74,60,50,96,61,25,29.03,28.94,4,0,4,0.83
2013-8-13,90,76,66,63,51,37,82,48,18,29.12,29.00,6,0,6,0.00
2013-8-14,88,72,59,63,50,40,92,52,20,29.18,29.06,6,0,6,0.00
2013-8-15,80,70,64,56,50,44,62,49,30,29.09,29.00,6,0,7,0.00
2013-8-16,88,72,62,51,46,38,63,42,19,29.27,29.09,5,0,5,0.00
2013-8-17,90,70,55,63,45,34,90,47,15,29.39,29.09,5,0,5,0.00
2013-8-18,91,72,55,63,48,40,92,50,18,29.44,29.06,3,0,4,0.00
2013-8-19,93,77,63,59,52,42,81,47,18,29.21,29.00,4,0,4,0.00
2013-8-20,98,81,68,62,53,43,75,44,16,29.15,29.00,4,0,4,0.00
2013-8-21,100,83,71,60,52,45,64,39,16,29.18,29.00,3,0,3,0.00
2013-8-22,99,82,71,63,57,46,72,47,17,29.24,29.06,3,0,3,0.00
2013-8-23,99,82,69,70,56,44,86,48,16,29.39,29.09,4,0,8,0.00
2013-8-24,100,84,73,62,56,45,65,42,16,29.59,29.15,8,0,8,0.00
2013-8-25,101,85,72,64,56,44,74,43,16,29.74,29.21,4,0,6,0.00
2013-8-26,102,85,73,66,56,44,79,43,15,29.62,29.15,6,0,6,0.00
2013-8-27,101,85,73,61,49,32,65,35,10,29.59,29.24,5,0,5,0.00
2013-8-28,100,84,71,65,54,45,72,40,16,29.80,29.27,4,0,4,0.00
2013-8-29,103,86,75,66,57,45,71,42,15,30.15,29.18,4,0,4,0.00
2013-8-30,108,89,72,63,50,26,68,32,6,30.45,29.09,2,0,2,0.00
2013-8-31,102,84,74,70,58,45,68,44,16,30.01,29.27,2,0,3,0.08
2013-9-1,96,79,67,74,57,42,93,54,21,30.86,29.95,8,0,8,0.28
2013-9-2,91,73,60,66,48,34,91,49,15,31.01,29.56,4,0,4,0.00
2013-9-3,94,73,55,64,45,25,92,47,9,31.01,29.62,2,0,2,0.00
2013-9-4,99,76,58,65,46,26,89,44,8,31.01,29.98,5,0,5,0.00
2013-9-5,100,79,61,61,46,31,82,39,10,31.01,29.50,2,0,3,0.00
2013-9-6,100,82,68,54,48,42,57,33,15,31.01,29.86,3,0,3,0.00
2013-9-7,105,86,71,58,50,33,59,33,9,31.01,30.95,3,0,4,0.00
2013-9-8,109,90,74,59,46,26,55,26,6,31.01,30.54,3,0,3,0.00
2013-9-9,100,86,74,49,42,25,41,25,9,31.01,31.01,8,0,8,0.00
2013-9-10,101,84,71,52,46,33,50,30,10,31.01,31.01,9,0,9,0.00
2013-9-11,103,85,70,58,46,33,50,29,9,31.01,31.01,5,0,5,0.00
2013-9-12,91,77,68,72,52,33,89,46,19,31.01,31.01,5,0,6,0.12
2013-9-13,86,69,56,45,35,25,61,32,13,31.01,31.01,5,0,5,0.00
2013-9-14,87,68,50,46,37,28,81,39,13,31.01,31.01,4,0,4,0.00
2013-9-15,97,74,63,60,47,35,92,42,16,31.01,31.01,8,0,8,0.71
2013-9-16,63,61,60,61,59,56,98,93,80,31.01,31.01,6,0,6,0.43
2013-9-17,79,68,61,69,61,53,97,79,44,31.01,31.01,8,0,8,0.71
2013-9-18,94,79,67,67,56,44,95,53,19,31.01,31.01,12,0,12,0.00
2013-9-19,96,79,67,65,55,43,85,51,17,31.01,31.01,8,0,11,0.24
2013-9-20,78,65,52,61,39,24,81,43,15,31.01,31.01,8,0,8,0.00
2013-9-21,86,64,48,59,40,28,92,50,16,31.01,31.01,4,0,4,0.00
2013-9-22,84,66,52,54,40,30,85,43,16,31.01,31.01,6,0,7,0.00
2013-9-23,83,67,52,48,39,27,78,41,14,31.01,31.01,8,0,10,0.00
2013-9-24,76,66,58,49,45,41,65,47,31,31.01,31.01,5,0,5,0.00
2013-9-25,88,69,53,62,48,39,91,54,19,31.01,31.01,5,0,5,0.00
2013-9-26,92,75,60,56,46,36,80,43,14,31.01,31.01,8,0,8,0.00
2013-9-27,91,77,67,50,44,35,52,34,15,31.01,31.01,8,0,8,0.00
2013-9-28,75,66,50,62,44,29,82,48,21,31.01,17.72,5,0,7,0.16
2013-9-29,82,61,43,57,37,22,93,52,12,17.72,17.72,0,0,0,0.00
2013-9-30,85,64,46,59,39,27,91,46,13,17.72,17.72,4,0,4,0.00
2013-10-1,91,70,55,63,49,41,89,52,20,17.72,17.72,0,0,0,0.00
2013-10-2,89,72,60,68,55,45,93,62,24,17.72,17.72,6,0,6,0.04
2013-10-3,87,73,63,68,59,50,92,64,30,17.72,17.72,10,0,10,0.12
2013-10-4,92,76,57,63,55,33,84,52,19,17.72,17.72,10,0,10,0.31
2013-10-5,64,53,44,32,24,19,47,34,18,17.72,17.72,8,0,8,0.00
2013-10-6,68,53,43,34,28,22,64,39,23,17.72,17.72,6,0,6,0.00
2013-10-7,81,58,38,43,29,18,80,40,12,17.72,17.72,2,0,4,0.00
2013-10-8,79,62,46,44,32,20,70,36,12,17.72,17.72,9,0,9,0.00
2013-10-9,69,59,52,38,35,32,57,41,26,17.72,0.00,3,0,3,0.00
2013-10-10,84,67,54,44,39,32,64,39,19,0.00,0.00,8,0,8,0.00
2013-10-11,83,69,59,54,46,33,66,46,26,0.00,0.00,8,0,8,0.00
2013-10-12,77,59,45,41,29,15,76,37,13,0.00,0.00,5,0,6,0.00
2013-10-13,76,56,38,51,27,14,88,42,10,0.00,0.00,8,0,8,0.00
2013-10-14,73,60,53,62,41,22,92,54,24,0.00,0.00,13,0,13,0.67
2013-10-15,65,54,44,59,34,23,94,51,24,0.00,0.00,6,0,6,0.04
2013-10-16,67,53,43,30,26,21,58,37,18,0.00,0.00,2,0,2,0.00
2013-10-17,72,53,37,44,27,16,80,41,14,0.00,0.00,3,0,3,0.00
2013-10-18,45,39,34,34,30,26,88,71,50,0.00,0.00,0,0,0,0.28
2013-10-19,68,47,29,49,28,18,96,58,15,0.00,0.00,8,0,8,0.00
2013-10-20,80,57,41,37,30,21,65,40,13,0.00,0.00,3,0,3,0.00
2013-10-21,66,51,39,30,24,15,61,38,15,0.00,0.00,6,0,6,0.00
2013-10-22,68,52,39,38,28,21,70,41,22,0.00,0.00,7,0,7,0.00
2013-10-23,60,45,31,34,26,22,78,51,25,0.00,0.00,0,0,0,0.00
2013-10-24,61,44,31,29,21,6,64,44,17,0.00,0.00,4,0,4,0.00
2013-10-25,64,44,26,27,18,9,80,42,13,0.00,0.00,5,0,5,0.00
2013-10-26,69,51,34,40,23,10,73,38,15,0.00,0.00,6,0,6,0.00
2013-10-27,71,48,27,42,20,13,85,42,12,0.00,0.00,3,0,3,0.00
2013-10-28,67,51,36,45,32,17,74,51,29,0.00,0.00,4,0,4,0.00
2013-10-29,66,59,54,64,56,43,96,88,65,0.00,0.00,3,0,3,0.31
2013-10-30,75,62,54,67,57,52,94,84,48,0.00,0.00,4,0,4,1.02
2013-10-31,60,51,41,53,44,31,98,80,38,0.00,0.00,3,0,3,0.55
2013-11-1,66,50,38,39,31,0,86,54,23,0.00,0.00,4,0,4,0.04
2013-11-2,56,42,36,26,21,14,66,47,20,0.00,0.00,0,0,0,0.00
2013-11-3,62,51,36,28,24,21,68,37,24,0.00,0.00,9,0,9,0.00
2013-11-4,68,58,51,42,33,27,57,40,25,0.00,0.00,10,0,10,0.00
2013-11-5,60,56,42,58,51,38,94,83,58,0.00,0.00,3,0,3,0.55
2013-11-6,47,39,30,38,27,21,88,65,41,0.00,0.00,5,0,5,0.00
2013-11-7,62,43,28,41,24,13,92,55,19,0.00,0.00,6,0,6,0.00
2013-11-14,62,48,35,19,15,8,40,28,14,0.00,0.00,7,0,8,0.00
2013-11-15,63,51,35,38,26,16,57,39,25,0.00,0.00,9,0,9,0.00
2013-11-16,75,64,52,52,42,32,72,49,22,0.00,0.00,10,1,10,0.00
2013-11-17,68,58,42,53,24,8,68,30,12,0.00,0.00,9,1,9,0.00
2013-11-18,68,46,30,33,17,4,76,37,12,0.00,0.00,4,0,4,0.00
2013-11-19,66,50,30,21,13,7,59,26,13,0.00,0.00,9,0,9,0.00
2013-11-20,58,50,43,28,21,7,54,33,16,0.00,0.00,8,0,8,0.16
2013-11-21,49,38,27,34,27,17,80,64,49,0.00,0.00,8,0,8,0.00
2013-11-22,32,26,23,18,11,6,67,53,43,0.00,0.00,0,0,0,0.00
2013-11-23,33,24,14,11,2,-6,53,39,23,0.00,0.00,0,0,0,0.00
2013-11-24,34,23,12,4,-1,-5,51,36,23,0.00,0.00,0,0,0,0.00
2013-11-25,50,34,26,15,8,2,56,35,24,0.00,0.00,4,0,4,0.00
2013-11-26,44,29,17,22,8,-5,71,43,18,0.00,0.00,11,0,11,0.00
2013-11-27,43,27,12,9,0,-6,54,32,18,0.00,0.00,2,0,2,0.00
2013-11-28,49,32,20,17,7,1,56,35,21,0.00,0.00,6,0,6,0.00
2013-11-29,57,36,18,19,11,6,69,39,17,0.00,0.00,4,0,4,0.00
2013-11-30,64,43,29,26,19,12,62,40,23,0.00,0.00,2,0,2,0.00
2013-12-1,64,40,24,36,21,17,84,51,22,0.00,0.00,0,0,0,0.00
2013-12-2,61,46,33,36,29,20,74,55,26,0.00,0.00,3,0,3,0.00
2013-12-3,66,49,39,39,32,26,83,55,24,0.00,0.00,3,0,3,0.00
2013-12-4,41,31,21,34,16,0,83,56,37,0.00,0.00,5,0,5,0.00
2013-12-5,23,19,14,2,-4,-7,45,37,33,0.00,0.00,0,0,0,0.00
2013-12-6,22,14,7,-6,-14,-22,34,27,22,0.00,0.00,0,0,0,0.00
2013-12-7,26,15,1,-4,-15,-27,37,24,21,0.00,0.00,0,0,0,0.00
2013-12-8,25,21,12,13,6,-8,67,53,27,0.00,0.00,0,0,0,0.00
2013-12-9,22,12,6,5,-5,-16,67,49,33,0.00,0.00,0,0,0,0.00
2013-12-10,47,26,10,13,1,-13,53,36,20,0.00,0.00,0,0,0,0.00
2013-12-11,34,21,9,14,-3,-21,63,37,20,0.00,0.00,5,0,5,0.00
2013-12-12,14,11,9,-16,-19,-20,24,24,24,0.00,0.00,0,0,0,0.00
2013-12-14,36,26,15,26,11,3,78,54,32,0.00,0.00,0,0,0,0.00
2013-12-15,58,36,15,22,14,3,76,45,19,0.00,0.00,0,0,0,0.00
2013-12-16,66,42,24,23,14,9,62,35,12,0.00,0.00,6,0,6,0.00
2013-12-17,56,34,22,28,12,2,78,44,17,0.00,0.00,5,0,5,0.00
2013-12-18,68,48,23,23,17,8,55,32,15,0.00,0.00,9,0,9,0.00
2013-12-19,60,51,36,37,30,22,65,45,34,0.00,0.00,8,0,8,0.00
2013-12-20,36,23,20,24,13,8,78,64,54,0.00,0.00,6,0,6,0.00
2013-12-21,27,24,22,20,13,9,78,63,53,0.00,0.00,7,0,7,0.00
2013-12-22,31,20,6,18,7,-9,77,57,41,0.00,0.00,6,0,6,0.00
2013-12-23,24,12,4,0,-7,-14,50,42,33,0.00,0.00,5,0,5,0.00
2013-12-24,32,21,4,23,2,-17,73,45,32,0.00,0.00,6,0,6,0.00
2013-12-25,47,32,21,26,18,11,79,57,30,0.00,0.00,2,0,2,0.00
2013-12-26,53,32,17,20,15,10,82,52,26,0.00,0.00,11,0,11,0.00
2013-12-27,62,38,19,35,17,8,83,48,16,0.00,0.00,2,0,2,0.00
2013-12-28,60,44,32,23,19,15,62,40,19,0.00,0.00,6,0,9,0.00
2013-12-29,37,19,8,19,-7,-22,47,32,20,0.00,0.00,11,0,11,0.00
2013-12-30,39,21,6,6,-8,-23,53,28,19,0.00,0.00,0,0,0,0.00
2013-12-31,56,35,15,21,9,3,74,39,15,0.00,0.00,9,0,9,0.00
2014-1-1,39,19,8,10,2,-6,57,48,30,0.00,0.00,5,0,5,0.00
2014-1-2,22,11,0,-1,-7,-13,52,44,34,0.00,0.00,3,0,3,0.00